This is the latest recevied weather packets stored in our database for station/object K1RFS. If no packets are shown the sender has not sent any weather packets the latest 10 day(s).
| Time | Temp. | Humidity | Pressure | Rain* | Wind** | Luminosity | Snow |
|---|---|---|---|---|---|---|---|
| 1787946137 | 30.56° C | 30% | 1004.6 hPa | 0 mm | - | 601 W/m² | - |
| 1787945832 | 30° C | 31% | 1004.6 hPa | 0 mm | - | 565 W/m² | - |
| 1787945528 | 30° C | 33% | 1004.6 hPa | 0 mm | - | 587 W/m² | - |
| 1787945222 | 30° C | 33% | 1004.8 hPa | 0 mm | - | 581 W/m² | - |
| 1787944921 | 30.56° C | 32% | 1004.9 hPa | 0 mm | - | 622 W/m² | - |
| 1787944620 | 30° C | 34% | 1004.9 hPa | 0 mm | - | 655 W/m² | - |
| 1787944315 | 28.33° C | 35% | 1005.2 hPa | 0 mm | - | 555 W/m² | - |
| 1787944011 | 27.78° C | 37% | 1005 hPa | 0 mm | - | 246 W/m² | - |
| 1787943706 | 27.22° C | 38% | 1005.3 hPa | 0 mm | - | 224 W/m² | - |
| 1787943401 | 27.22° C | 37% | 1005 hPa | 0 mm | - | 155 W/m² | - |
| 1787943097 | 27.22° C | 38% | 1005.4 hPa | 0 mm | - | 144 W/m² | - |
| 1787942792 | 26.67° C | 39% | 1005.4 hPa | 0 mm | - | 146 W/m² | - |
| 1787942491 | 26.67° C | 38% | 1005.2 hPa | 0 mm | - | 148 W/m² | - |
| 1787942186 | 26.67° C | 38% | 1005.3 hPa | 0 mm | - | 139 W/m² | - |
| 1787941882 | 26.67° C | 39% | 1005.4 hPa | 0 mm | - | 127 W/m² | - |
| 1787941581 | 26.67° C | 39% | 1005.4 hPa | 0 mm | - | 117 W/m² | - |
| 1787941275 | 26.67° C | 40% | 1005.6 hPa | 0 mm | - | 117 W/m² | - |
| 1787940975 | 26.67° C | 38% | 1005.8 hPa | 0 mm | - | 134 W/m² | - |
| 1787940675 | 26.67° C | 36% | 1005.8 hPa | 0 mm | - | 160 W/m² | - |
| 1787940373 | 27.22° C | 36% | 1005.8 hPa | 0 mm | - | 123 W/m² | - |
| 1787940072 | 26.67° C | 36% | 1005.8 hPa | 0 mm | - | 106 W/m² | - |
| 1787939767 | 26.67° C | 38% | 1006 hPa | 0 mm | - | 125 W/m² | - |
| 1787939461 | 26.67° C | 38% | 1006 hPa | 0 mm | - | 158 W/m² | - |
| 1787939157 | 26.67° C | 38% | 1006.1 hPa | 0 mm | - | 165 W/m² | - |
| 1787938855 | 26.67° C | 37% | 1005.7 hPa | 0 mm | - | 156 W/m² | - |
* Rain latest hour (hover to see other rain measurements)
** Current wind speed in m/s (hover to see current wind gust speed)